Location: Unspecified
(0.0000°N, 0.0000°E)
Time: 00:34:46
(UTC+00:00)

Vanguard 1 - Visible Passes

Search period start: 28 April 2017 00:00
Search period end: 08 May 2017 00:00
Orbit: 654 x 3831 km, 34.3° (Epoch: 26 April)

Date Brightness Start Highest point End Pass type
(mag) Time Alt. Az. Time Alt. Az. Time Alt. Az.
28 Apr 14.0 02:03:17 10° NW 02:16:21 17° N 02:27:17 10° NNE visible
28 Apr 13.5 04:36:29 10° NNW 04:47:58 21° NNE 04:55:54 10° ENE visible
28 Apr 12.0 18:57:43 10° SW 19:09:12 66° SE 19:29:40 10° ENE visible
28 Apr 12.9 21:19:23 10° WSW 21:35:00 54° NNW 21:57:44 10° NE visible
28 Apr 13.8 23:49:05 10° WNW 00:05:51 26° NNW 00:23:09 10° NNE visible
29 Apr 14.0 02:27:37 10° NW 02:40:16 17° N 02:50:28 10° NE visible
29 Apr 13.3 04:57:49 10° NNW 05:10:36 26° NNE 05:18:46 10° ENE visible
29 Apr 12.0 19:18:37 10° SW 19:30:34 84° SE 19:51:56 10° NE visible
29 Apr 13.2 21:41:37 10° W 21:57:24 44° NNW 22:19:09 10° NE visible
30 Apr 13.9 00:13:42 10° WNW 00:29:33 22° NNW 00:45:05 10° NNE visible
30 Apr 13.9 02:50:54 10° NNW 03:03:59 19° N 03:14:03 10° NE visible
30 Apr 12.9 05:19:05 10° NW 05:32:55 34° NNE 05:41:08 10° E visible
30 Apr 12.2 19:39:47 10° WSW 19:52:08 79° NW 20:13:53 10° NE visible
30 Apr 13.5 22:04:21 10° W 22:20:06 36° NNW 22:40:35 10° NE visible
01 May 14.0 00:38:33 10° NW 00:53:32 20° N 01:07:32 10° NNE visible
01 May 13.8 03:13:17 10° NNW 03:27:24 21° NNE 03:37:36 10° ENE visible
01 May 12.5 20:01:14 10° WSW 20:13:57 63° NNW 20:35:34 10° NE visible
01 May 13.7 22:27:37 10° WNW 22:43:10 29° NNW 23:02:10 10° NNE visible
02 May 14.1 01:03:07 10° NW 01:17:41 19° N 01:30:40 10° NE visible
02 May 13.6 03:35:08 10° NNW 03:50:27 26° NNE 04:00:49 10° ENE visible
02 May 11.7 18:01:57 10° SW 18:11:18 66° SE 18:28:53 10° ENE visible
02 May 12.9 20:23:01 10° WSW 20:36:03 50° NNW 20:57:07 10° NE visible
02 May 13.9 22:51:26 10° WNW 23:06:36 25° NNW 23:24:03 10° NNE visible
03 May 14.0 01:26:57 10° NW 01:41:47 20° N 01:54:20 10° NE visible
03 May 13.3 03:56:41 10° NW 04:13:11 32° NNE 04:23:34 10° E visible
03 May 11.8 18:22:50 10° SW 18:32:33 86° SE 18:51:06 10° NE visible
03 May 13.2 20:45:12 10° W 20:58:27 40° NNW 21:18:37 10° NE visible
03 May 14.0 23:15:40 10° NW 23:30:25 22° N 23:46:24 10° NNE visible
04 May 13.9 01:49:56 10° NNW 02:05:39 22° N 02:18:11 10° NE visible
04 May 12.9 04:18:08 10° NW 04:35:35 41° NNE 04:45:51 10° E visible
04 May 12.0 18:43:58 10° WSW 18:54:02 74° NW 19:12:59 10° NE visible
04 May 13.5 21:07:51 10° W 21:21:10 32° NNW 21:40:09 10° NE visible
04 May 14.1 23:39:59 10° NW 23:54:31 20° N 00:09:25 10° NE visible
05 May 13.8 02:12:13 10° NNW 02:29:10 25° NNE 02:41:52 10° ENE visible
05 May 12.5 04:39:36 10° NW 04:57:42 53° NNE 05:07:44 10° ESE visible
05 May 12.4 19:05:24 10° WSW 19:15:47 57° NNW 19:34:38 10° NE visible
05 May 13.7 21:31:00 10° WNW 21:44:14 27° NNW 22:01:54 10° NNE visible
06 May 14.1 00:03:56 10° NW 00:18:46 20° N 00:33:07 10° NE visible
06 May 13.6 02:34:02 10° NW 02:52:18 30° NNE 03:05:06 10° ENE visible
06 May 12.1 05:01:11 10° NW 05:19:31 69° NE 05:29:14 10° ESE visible
06 May 12.8 19:27:11 10° W 19:37:51 44° NNW 19:56:08 10° NE visible
06 May 13.9 21:54:38 10° WNW 22:07:40 23° NNW 22:24:01 10° NNE visible
07 May 14.0 00:27:13 10° NW 00:42:55 21° N 00:57:18 10° NE visible
07 May 13.3 02:55:37 10° NW 03:15:05 37° NNE 03:27:51 10° E visible
07 May 11.8 05:23:00 10° NW 05:41:03 89° NE 05:50:26 10° SE visible
07 May 13.2 19:49:23 10° W 20:00:13 35° NNW 20:17:36 10° NE visible
07 May 14.0 22:18:32 10° NW 22:31:29 20° N 22:46:46 10° NE visible
